Miscellaneous Local Product
Issued by NWS North Platte, NE

Home | Current Version | Previous Version | Text Only | Print | Product List | Glossary On
Versions: 1 2 3 4 5 6 7 8 9 10 11 12 13 14 15 16 17 18 19 20 21 22 23 24 25 26 27 28 29 30 31 32 33 34 35 36 37 38 39 40 41 42 43 44 45 46 47 48 49 50
000
AXUS43 KLBF 280410
MISLBF


WESTERN AND NORTH CENTRAL NEBRASKA HOURLY WEATHER ROUNDUP
NATIONAL WEATHER SERVICE NORTH PLATTE NE
1000 PM CST THU NOV 27 2014

***STATIONS NOT REPORTING VARIABLES SUCH AS SKY/WEATHER OR
PRESSURE ARE PROVIDED BY THE NEBRASKA DEPARTMENT OF
ROADS...RAWS...AND APRS NETWORKS...AND ARE NOT UNDER
NATIONAL WEATHER SERVICE QUALITY CONTROL***

...OBSERVATIONS IN AND NEAR THE EASTERN PANHANDLE OF NEBRASKA...

CITY           SKY/WX    TMP DP  RH WIND       PRES   REMARKS
PINE RIDGE     CLEAR     44  30  57 W5        29.92F
CHADRON        PTCLDY   N/A N/A N/A W8        29.93F
ALLIANCE       CLEAR     32  26  78 W12       29.96F WCI  23
SIDNEY         CLEAR     35  26  69 W8        30.03S WCI  29
WHITECLAY        N/A     49  28  44 W6          N/A
CRESCENT LAKE    N/A     44  28  53 W9          N/A
LISCO            N/A     35  27  70 W6          N/A  WCI  30
BIG SPRINGS      N/A     36  31  83 SW10        N/A  WCI  28
$$

...OBSERVATIONS IN NORTH CENTRAL NEBRASKA...

CITY           SKY/WX    TMP DP  RH WIND       PRES   REMARKS
VALENTINE      CLEAR     36  28  73 SW8       29.90S WCI  30
THEDFORD       CLEAR     38  26  60 SW8       29.95F WCI  32
AINSWORTH      CLEAR     34  22  61 S14       29.91F WCI  25
O`NEILL        CLEAR     31  20  64 S16G22    29.97F WCI  19
ORD            CLEAR     27  17  66 SE7       30.01F WCI  19
BROKEN BOW     PTCLDY    26  17  68 SE3       29.98F
BROWNLEE         N/A     36  23  59 S7          N/A  WCI  30
SPRINGVIEW       N/A     34  23  63 CALM        N/A
BREWSTER         N/A     33  22  66 S6          N/A  WCI  27
SARGENT          N/A     25  18  74 CALM        N/A
COMSTOCK         N/A     29  21  70 CALM        N/A
CHAMBERS         N/A     28  15  57 S6G15       N/A  WCI  22
EWING            N/A     24  19  79 CALM        N/A
$$

...OBSERVATIONS IN SOUTHWEST NEBRASKA AND FAR NORTHEAST COLORADO...

CITY           SKY/WX    TMP DP  RH WIND       PRES   REMARKS
WRAY           FAIR      39  29  66 SW9       30.04R WCI  33
HOLYOKE        FAIR      34  28  80 W8        30.03S WCI  27
IMPERIAL       CLEAR     43  28  55 W10       30.00S
OGALLALA       CLEAR     33  31  90 W9        29.99F WCI  26
NORTH PLATTE   PTCLDY    26  19  74 CALM      29.98F
MCCOOK         CLEAR     38  25  59 W8        29.98S WCI  32
LEXINGTON      PTCLDY    28  19  70 SE3       29.99S
PAXTON           N/A     32  27  82 CALM        N/A
BRADY            N/A     27  19  70 CALM        N/A
GOTHENBURG       N/A     27  17  64 CALM        N/A
CALLAWAY         N/A     28  21  74 SE3         N/A
$$

...NORTH PLATTE AREA...

CITY           SKY/WX    TMP DP  RH WIND       PRES   REMARKS
AIRPORT        PTCLDY    26  19  74 CALM      29.98F
DOWNTOWN         N/A     34  24  65 CALM        N/A
$$

...SOME WEATHER OBSERVATIONS FROM AROUND THE REGION...

CITY           SKY/WX    TMP DP  RH WIND       PRES   REMARKS
DENVER         PTCLDY    44  19  36 SW5       30.09F
LARAMIE        PTCLDY    43  20  39 SW23G32   30.17F
CHEYENNE       CLEAR     49  20  31 W31G39    30.06F
SCOTTSBLUFF    PTCLDY    33  27  78 NE3       29.99S
RAPID CITY     CLEAR     34  26  72 CALM      29.86F
PIERRE         PTCLDY    22  16  78 SE6       29.87F WCI  14
WINNER         MOCLDY    39  23  52 S22       29.85F WCI  29
SIOUX FALLS    CLOUDY    15   8  73 SE14G24   30.07F WCI   0
OMAHA          PTCLDY    24  16  71 SE15      30.19F WCI  11
GRAND ISLAND   CLEAR     30  17  58 SE10      30.05F WCI  21
KANSAS CITY    CLEAR     28  22  78 SE10      30.29F WCI  19
WICHITA        PTCLDY    40  21  46 S16       30.19F WCI  31
HAYS           CLEAR     36  18  48 S10       30.06F WCI  28
LIBERAL        PTCLDY    43  27  52 S13       30.12F
GOODLAND       PTCLDY    47  27  45 W13       30.05S
$$



USA.gov is the U.S. government's official web portal to all federal, state and local government web resources and services.